Change the Weather History Date:

Tuesday, March 4, 2014

  Actual Average Record
Temperature  
Mean Temperature 52 °F -  
Max Temperature 60 °F 50 °F 73 °F (1987)
Min Temperature 44 °F 34 °F 11 °F (1989)
Degree Days  
Heating Degree Days 13    
Growing Degree Days 2 (Base 50)    
Moisture  
Dew Point 39 °F    
Average Humidity 66    
Maximum Humidity 77    
Minimum Humidity 49    
Precipitation  
Precipitation 0.01 in - - ()
Sea Level Pressure  
Sea Level Pressure 29.98 in    
Wind  
Wind Speed 10 mph (South)    
Max Wind Speed 16 mph    
Max Gust Speed -    
Visibility 10 miles    
Events Rain    
Averages and records for this station are not official NWS values.
T = Trace of Precipitation, MM = Missing Value Source: NWS Daily Summary

Daily Weather History Graph

Daily Weather History Graph

Search for Another Location

Airport or City:

Trip Planner

Search our weather history database for the weather conditions in past years. The results will help you decide how hot, cold, wet, or windy it might be!

Date:

Astronomy

Mar. 04, 2014 Rise Set
Actual Time 6:26 AM PST 5:43 PM PST
Civil Twilight 5:56 AM PST 6:13 PM PST
Nautical Twilight 5:21 AM PST 6:48 PM PST
Astronomical Twilight 4:47 AM PST 7:23 PM PST
Moon 8:01 AM PST (3/4) 10:11 PM PST (3/4)
Length of Visible Light 12h 17m
Length of Day
11h 17m
Waxing Crescent, 15% of the Moon is Illuminated
Mar 4
Waxing Crescent
Mar 8
First Quarter
Mar 16
Full
Mar 23
Last Quarter
Mar 30
New

Hourly Weather History & Observations

Time (PST) Temp. Windchill Dew Point Humidity Pressure Visibility Wind Dir Wind Speed Gust Speed Precip Events Conditions
12:53 AM 46.0 °F 40.6 °F 37.9 °F 73% 29.98 in 10.0 mi South 11.5 mph - N/A   Mostly Cloudy
1:53 AM 45.0 °F 39.3 °F 37.9 °F 76% 29.98 in 10.0 mi South 11.5 mph - N/A   Clear
2:53 AM 45.0 °F 39.7 °F 37.0 °F 74% 29.99 in 10.0 mi South 10.4 mph - N/A   Scattered Clouds
3:53 AM 45.0 °F 39.7 °F 37.0 °F 74% 29.99 in 10.0 mi South 10.4 mph - N/A   Mostly Cloudy
4:53 AM 44.1 °F 40.1 °F 36.0 °F 73% 29.99 in 10.0 mi South 6.9 mph - N/A   Clear
5:53 AM 44.1 °F 39.0 °F 36.0 °F 73% 29.99 in 10.0 mi South 9.2 mph - N/A   Partly Cloudy
6:53 AM 46.0 °F 41.0 °F 36.0 °F 68% 29.99 in 10.0 mi South 10.4 mph - N/A   Clear
7:53 AM 48.0 °F - 37.9 °F 68% 30.01 in 10.0 mi South 8.1 mph - N/A   Partly Cloudy
8:53 AM 52.0 °F - 39.0 °F 61% 30.01 in 10.0 mi SSW 11.5 mph - N/A   Scattered Clouds
9:53 AM 53.1 °F - 39.0 °F 59% 30.01 in 10.0 mi SW 15.0 mph - N/A   Overcast
10:53 AM 52.0 °F - 41.0 °F 66% 30.04 in 10.0 mi South 10.4 mph - 0.00 in Rain Light Rain
11:53 AM 53.1 °F - 42.1 °F 66% 30.03 in 10.0 mi South 6.9 mph - 0.01 in Rain Light Rain
12:53 PM 55.9 °F - 39.9 °F 55% 29.99 in 10.0 mi SSE 4.6 mph - 0.00 in   Mostly Cloudy
1:53 PM 57.9 °F - 39.9 °F 51% 29.96 in 10.0 mi SW 9.2 mph - N/A   Mostly Cloudy
2:53 PM 59.0 °F - 39.9 °F 49% 29.95 in 10.0 mi SW 16.1 mph - N/A   Mostly Cloudy
3:53 PM 60.1 °F - 41.0 °F 49% 29.95 in 10.0 mi SW 15.0 mph - N/A   Scattered Clouds
4:53 PM 57.0 °F - 42.1 °F 57% 29.96 in 10.0 mi South 5.8 mph - N/A   Overcast
5:53 PM 53.1 °F - 42.1 °F 66% 29.96 in 10.0 mi South 8.1 mph - N/A   Mostly Cloudy
6:53 PM 48.9 °F - 41.0 °F 74% 29.96 in 10.0 mi South 6.9 mph - N/A   Clear
7:53 PM 50.0 °F - 39.9 °F 68% 29.96 in 10.0 mi SSE 6.9 mph - N/A   Clear
8:53 PM 46.9 °F - 39.9 °F 77% 29.96 in 10.0 mi SE 4.6 mph - N/A   Clear
9:53 PM 46.9 °F - 39.9 °F 77% 29.95 in 10.0 mi ESE 5.8 mph - N/A   Clear
10:53 PM 46.9 °F - 39.9 °F 77% 29.94 in 10.0 mi Calm Calm - N/A   Scattered Clouds
11:53 PM 53.1 °F - 39.0 °F 59% 29.92 in 10.0 mi SSE 9.2 mph - N/A   Mostly Cloudy